STARLINK-33897

Last updated on Tue Jun 10 2025 00:02:03 GMT+0000 (Coordinated Universal Time)

1 63865U 25094B 25159.63339572 .00056045 00000+0 90461-3 0 9990 2 63865 70.0001 225.0241 0004197 289.4106 70.6627 15.52598485 5886
UTC large
Height (km)
Speed (km/s)
/
Latitude / Longitude
Inclination (degrees)
Orbital Period (minutes)
Azimuth
Elevation
Range (km)
Doppler Factor

Next 0 passes for location: London (51.5072 / 0.1276)

Sorry there are no passes over London.